Regional Weather Roundup
Issued by NWS Mobile, AL

Home | Current Version | Previous Version | Text Only | Print | Product List | Glossary On
Versions: 1 2 3 4 5 6 7 8 9 10 11 12 13 14 15 16 17 18 19 20 21 22 23 24 25 26 27 28 29 30 31 32 33 34 35 36 37 38 39 40 41 42 43 44 45 46 47 48 49 50
000
ASUS44 KMOB 091312
RWRMOB
REGIONAL WEATHER ROUNDUP
NATIONAL WEATHER SERVICE MOBILE AL
700 AM CST FRI DEC 09 2016

NOTE: "FAIR" INDICATES FEW OR NO CLOUDS BELOW 12,000 FEET WITH NO
      SIGNIFICANT WEATHER AND/OR OBSTRUCTIONS TO VISIBILITY.

  * THESE STATIONS ARE PART OF THE UNIVERSITY OF SOUTH ALABAMA
    MESONET AND ARE NOT UNDER NWS OR FAA QUALITY CONTROL.

ALZ061>064-091400-
COASTAL ALABAMA

CITY           SKY/WX    TMP DP  RH WIND       PRES   REMARKS
MOBILE REG APT PTCLDY    33  21  61 N16G22    30.51R WCI  23
BROOKLEY FIELD NOT AVBL
USA CAMPUS*      N/A     32  23  69 N3        30.51R
DOG RIVER*       N/A     34  25  69 N9        31.40  WCI  26


CITY           SKY/WX    TMP DP  RH WIND       PRES   REMARKS
GULF SHORES    CLOUDY    35  24  65 N9G17     30.49R WCI  28

$$

ALZ051>060-091400-
INTERIOR SOUTHWEST AND SOUTH CENTRAL ALABAMA

CITY           SKY/WX    TMP DP  RH WIND       PRES   REMARKS
GREENVILLE     CLEAR     31  18  58 N8        30.49R WCI  23
EVERGREEN      NOT AVBL
ATMORE*          N/A     32  25  74 N13       30.52R WCI  22
ANDALUSIA/OPP  CLEAR     36  22  56 N10       30.49R
ANDALUSIA*       N/A     32  23  69 NW14      30.47R WCI  22
FLORALA APT    CLEAR     33  24  69 N7        30.50R WCI  27
FLORALA*         N/A     34  25  69 W6        31.35R WCI  29

$$

FLZ001>006-091400-
WESTERN FLORIDA PANHANDLE

CITY           SKY/WX    TMP DP  RH WIND       PRES   REMARKS
PENSACOLA      CLEAR     37  23  56 N10G21    30.48R
NAS PENSACOLA  PTCLDY    37  23  56 N10       30.48R
MILTON         PTCLDY    33  22  63 VRB7      30.49R WCI  27
WHTNG S FIELD  PTCLDY    37  23  56 N12G21    30.49R


CITY           SKY/WX    TMP DP  RH WIND       PRES   REMARKS
JAY*             N/A     32  21  64 N12       30.50R WCI  23
DUKE FIELD     CLEAR     35  24  63 N12       30.46R WCI  27
CRESTVIEW      CLEAR     35  24  64 N6        30.50R WCI  30
VALPARAISO     PTCLDY    37  25  62 N12       30.47R
DESTIN         CLEAR     41  26  55 N17G26    30.47R

$$

MSZ076-079-091400-
INTERIOR SOUTHEAST MISSISSIPPI

CITY           SKY/WX    TMP DP  RH WIND       PRES   REMARKS
LEAKESVILLE*   NOT AVBL
AGRICOLA*      NOT AVBL

$$

MARINE OBSERVATIONS

STATION/POSITION TIME  TEMP    WIND        PRES    WAVE
                       AIR SEA DIR/SP/G            HT/PER
                 (UTC) (F)     (DEG/KT/KT) (MB)    (FT/S)
PASCAGOULA       1248   36      20/ 14/ 18 1032.8R
PETIT BOIS ISLND 1248   37      10/ 19/ 24 1033.3R
GRAND BAY        1145   37      10/ 11     1033.0R
KATRINA CUT      1230   38      20/ 20     1032.2R
CEDAR POINT      1230   36      20/ 14     1031.2R
E DAUPHIN ISLAND 1200   41      10/ 24/ 26 1031.6R
MIDDLE BAY LIGHT 1230           10/ 25     1031.8R
USCG MOBILE BAY  1248   35 58  360/ 12/ 16 1033.6R
STATE DOCKS      1248   36 60              1033.0R
MEAHER PARK      1230   35     360/ 11     1032.2R
WEEKS BAY        1145   37                   N/A
12 S ORANGE BCH  1150   44 69   20/ 23/ 27 1031.0R   4/ 4
PENSACOLA BAY    1248   37 62   10/  8/ 13 1032.2R
64 S DAUPHIN ISL 1250   52 74   20/ 23/ 29 1030.8R   8/ 7
67 S FORT MORGAN 1230   51      30/ 25     1029.5R

$$

SELECTED LOCATIONS ACROSS THE REGION

CITY           SKY/WX    TMP DP  RH WIND       PRES   REMARKS
NEW ORLEANS    MOCLDY    40  27  59 NE10G25   30.52R
GULFPORT       CLEAR     35  22  58 N10       30.52R WCI  27
PASCAGOULA AP  CLEAR     34  20  56 N12       30.51R WCI  25
PASCAGOULA*    NOT AVBL
HATTIESBURG    CLEAR     31  18  58 N6        30.57R WCI  25
LAUREL         CLEAR     28  16  59 N9        30.57R WCI  20
MERIDIAN       CLEAR     29  17  61 N9        30.57S WCI  20
JACKSON        CLEAR     30  21  69 N13       30.58R WCI  20
MONTGOMERY     CLEAR     31  17  56 NW3       30.53R
TROY           CLEAR     32  20  61 N7        30.50R WCI  26
ASHFORD*         N/A     32  23  69 NW14      30.47R WCI  22
DOTHAN         CLEAR     34  25  69 N9        30.50R WCI  27
PANAMA CITY    PTCLDY    39  26  59 N13       30.44R

$$




USA.gov is the U.S. government's official web portal to all federal, state and local government web resources and services.